Location: Blue Sky Observatory
(43.1153°N, 70.9036°W)
Time: 01:51:05
(UTC-04:00)

Amateur Radio Satellites - All Passes

Search period start: 01 April 2015 01:21
Search period end: 02 April 2015 01:21
Location: Blue Sky Observatory, 43.1153°N, 70.9036°W

Satellite Date Start Highest point End Downlink Frequencies (MHz)
Time Altitude Azimuth
TISAT 1 01 Apr 01:24:37 01:27:24 17° 269° (W) 01:30:03 437.305
NANOSAT C BR1 01 Apr 01:30:32 01:31:45 11° 298° (WNW) 01:32:44 145.865
YUBILEINY 01 Apr 01:39:07 01:47:39 55° 269° (W) 01:56:02 435.215
STARS 01 Apr 01:41:54 01:44:17 15° 63° (ENE) 01:46:50 437.465
SWISSCUBE 01 Apr 01:47:27 01:52:11 59° 260° (W) 01:56:57 437.505
BEESAT 01 Apr 01:49:54 01:54:39 60° 260° (W) 01:59:25 436.000
ITAMSAT 1 01 Apr 01:56:59 01:59:53 15° 89° (E) 02:03:01 435.822/435.867
ISS 01 Apr 02:11:38 02:14:10 21° 11° (N) 02:16:43 145.825
Oscar 19 01 Apr 02:23:03 02:28:15 84° 101° (ESE) 02:33:28 437.125/150
ITUPSAT 1 01 Apr 02:40:01 02:43:42 21° 268° (W) 02:47:17 437.325
O/OREOS (USA 219) 01 Apr 02:42:51 02:45:49 18° 101° (ESE) 02:48:57 437.305
KKS-1 01 Apr 02:50:31 02:54:56 71° 258° (WSW) 02:59:23 437.445
SO-50 01 Apr 03:00:04 03:05:03 75° 54° (NE) 03:09:58 436.795
Gurwin Techsat 1B 01 Apr 03:00:33 03:05:43 50° 99° (E) 03:10:53 435.225
MOZHAYETS 4 01 Apr 03:11:41 03:13:39 13° 62° (ENE) 03:15:48
STARS 01 Apr 03:16:01 03:20:20 58° 259° (W) 03:24:40 437.465
HORYU 2 01 Apr 03:19:11 03:21:57 16° 90° (E) 03:24:55 437.375
RS-15 01 Apr 03:31:45 03:43:16 77° 53° (NE) 03:55:18 29.354- 29.394
ITAMSAT 1 01 Apr 03:34:49 03:39:59 68° 287° (WNW) 03:45:06 435.822/435.867
AO-7 01 Apr 03:42:22 03:48:42 25° 91° (E) 03:55:17 29.400- 29.500
ISS 01 Apr 03:47:48 03:51:02 65° 31° (NNE) 03:54:14 145.825
AIST 1 01 Apr 03:54:38 03:59:00 68° 97° (E) 04:03:23
JAS-2 01 Apr 03:59:33 04:06:01 30° 89° (E) 04:12:10 435.910
GONETS M04 01 Apr 04:03:52 04:05:30 11° 49° (NE) 04:07:49
Oscar 19 01 Apr 04:04:15 04:07:00 14° 300° (WNW) 04:09:32 437.125/150
O/OREOS (USA 219) 01 Apr 04:20:26 04:24:54 49° 298° (WNW) 04:29:23 437.305
AUBIESAT-1 01 Apr 04:24:33 04:28:15 32° 63° (ENE) 04:32:16 437.475
PHONESAT 2.4 01 Apr 04:25:52 04:27:26 13° 150° (SSE) 04:29:04 2401.200-2431.200
Gurwin Techsat 1B 01 Apr 04:41:14 04:45:25 23° 296° (WNW) 04:49:28 435.225
SO-50 01 Apr 04:42:13 04:45:05 15° 250° (WSW) 04:47:43 436.795
MOZHAYETS 4 01 Apr 04:45:40 04:50:18 77° 258° (WSW) 04:54:59
M-CUBED/EXP-1 PRIME 01 Apr 04:51:02 04:55:07 66° 69° (ENE) 04:59:36 437.505
HORYU 2 01 Apr 04:54:35 04:58:58 51° 288° (WNW) 05:03:20 437.375
VERMONT LUNAR 01 Apr 04:57:17 05:00:17 32° 163° (SSE) 05:03:20 437.305
CUBESAT XI-V 01 Apr 05:05:56 05:08:41 16° 64° (ENE) 05:11:35 437.345
STRAND 1 01 Apr 05:24:56 05:27:55 16° 61° (ENE) 05:31:06 437.568
ISS 01 Apr 05:24:59 05:27:07 16° 226° (SW) 05:29:11 145.825
AO-7 01 Apr 05:34:04 05:42:22 75° 291° (WNW) 05:50:38 29.400- 29.500
AIST 1 01 Apr 05:35:29 05:37:16 12° 295° (WNW) 05:38:48
JAS-2 01 Apr 05:43:58 05:51:34 59° 290° (WNW) 05:58:28 435.910
RS-15 01 Apr 05:45:04 05:54:55 32° 253° (WSW) 06:04:43 29.354- 29.394
GONETS M04 01 Apr 05:56:31 06:05:06 54° 74° (ENE) 06:13:44
AUBIESAT-1 01 Apr 05:59:35 06:03:07 26° 262° (W) 06:06:49 437.475
PHONESAT 2.4 01 Apr 06:01:56 06:05:13 37° 165° (SSE) 06:08:32 2401.200-2431.200
PRISM 01 Apr 06:15:11 06:19:21 60° 73° (ENE) 06:23:31 437.425
CUTE-I 01 Apr 06:17:42 06:22:06 27° 93° (E) 06:26:35 437.470
Cubesat XI-IV 01 Apr 06:18:44 06:23:13 27° 94° (E) 06:27:46 437.490
M-CUBED/EXP-1 PRIME 01 Apr 06:28:52 06:30:40 12° 269° (W) 06:32:17 437.505
DANDE 01 Apr 06:30:20 06:32:40 14° 71° (ENE) 06:35:34 436.750
VERMONT LUNAR 01 Apr 06:34:26 06:37:43 55° 179° (S) 06:41:00 437.305
CUBESAT XI-V 01 Apr 06:41:01 06:45:41 62° 259° (W) 06:50:22 437.345
STRAND 1 01 Apr 07:01:27 07:06:36 72° 257° (WSW) 07:11:46 437.568
CUSAT 1 01 Apr 07:03:51 07:08:06 42° 77° (ENE) 07:13:44 437.405
AO-7 01 Apr 07:28:31 07:33:58 19° 311° (NW) 07:39:07 29.400- 29.500
JAS-2 01 Apr 07:31:28 07:35:04 14° 310° (NW) 07:38:11 435.910
PHONESAT 2.4 01 Apr 07:39:51 07:43:19 56° 182° (S) 07:46:48 2401.200-2431.200
PRISM 01 Apr 07:53:24 07:55:17 12° 271° (W) 07:56:58 437.425
GONETS M04 01 Apr 07:53:53 08:01:41 36° 274° (W) 08:09:19
CUTE-I 01 Apr 07:57:22 08:02:21 41° 291° (WNW) 08:07:17 437.470
Cubesat XI-IV 01 Apr 07:58:30 08:03:28 40° 291° (WNW) 08:08:22 437.490
BRITE-PL 01 Apr 08:05:14 08:07:41 15° 91° (E) 08:10:22 437.365/2234.400
HO-68 01 Apr 08:05:33 08:09:32 16° 86° (E) 08:13:56 435.675
DANDE 01 Apr 08:11:49 08:16:00 59° 262° (W) 08:21:40 436.750
VERMONT LUNAR 01 Apr 08:12:03 08:15:10 36° 196° (SSW) 08:18:17 437.305
GOMX 1 01 Apr 08:35:49 08:39:08 22° 93° (E) 08:42:41 467.674
CANX-2 01 Apr 08:37:05 08:40:13 20° 92° (E) 08:43:27 2200.000
CUSAT 1 01 Apr 08:47:06 08:50:52 23° 265° (W) 08:55:20 437.405
CUTE 1.7 + AOD 2 01 Apr 08:50:15 08:53:47 25° 93° (E) 08:57:23 437.475
BEESAT 3 01 Apr 09:02:16 09:05:39 26° 115° (ESE) 09:09:07 437.485
AAUSAT CUBESAT 2 01 Apr 09:03:14 09:06:21 20° 92° (E) 09:09:34 437.432
CINEMA 3 01 Apr 09:04:53 09:07:38 16° 91° (E) 09:10:38 145.822/145.860
SEEDS 01 Apr 09:14:35 09:18:35 38° 97° (E) 09:22:35 437.485
PHONESAT 2.4 01 Apr 09:18:11 09:21:24 33° 198° (SSW) 09:24:37 2401.200-2431.200
COMPASS 1 01 Apr 09:32:12 09:36:20 48° 99° (E) 09:40:28 437.405
BRITE-PL 01 Apr 09:42:28 09:46:33 48° 287° (WNW) 09:50:49 437.365/2234.400
DOVE 4 01 Apr 09:46:56 09:51:20 83° 103° (ESE) 09:55:58 437.250
VERMONT LUNAR 01 Apr 09:51:02 09:52:19 12° 210° (SSW) 09:53:30 437.305
HO-68 01 Apr 09:51:08 09:58:24 88° 106° (ESE) 10:05:37 435.675
Oscar 11 01 Apr 09:51:12 09:55:06 32° 96° (E) 09:59:03 145.826/435.025
UNISAT 6 01 Apr 09:52:11 09:56:02 33° 69° (ENE) 09:59:58 437.425
QB50P1 01 Apr 09:53:51 09:56:43 19° 66° (ENE) 09:59:43 145.935-145.965
DUCHIFAT 1 01 Apr 09:53:54 09:56:43 18° 66° (ENE) 09:59:40 145.980
DELFI C3 01 Apr 09:58:33 10:02:08 29° 95° (E) 10:05:44 145.870
AIST 2 01 Apr 09:58:37 10:02:19 30° 115° (ESE) 10:06:07 435.215
TIGRISAT 01 Apr 10:00:47 10:04:45 39° 71° (ENE) 10:08:50 435.000
BEESAT 2 01 Apr 10:05:58 10:10:06 82° 304° (NW) 10:14:18 435.950
FUNcube-1 01 Apr 10:07:59 10:11:41 26° 94° (E) 10:15:30 145.935
QB50P2 01 Apr 10:09:04 10:12:35 27° 69° (ENE) 10:16:11 145.880/145.840
CANX-2 01 Apr 10:12:18 10:16:20 38° 289° (WNW) 10:20:19 2200.000
GOMX 1 01 Apr 10:13:27 10:17:24 36° 289° (WNW) 10:21:31 467.674
BUGSAT 1 01 Apr 10:19:44 10:23:03 24° 68° (ENE) 10:26:25 437.445
UWE-3 01 Apr 10:20:10 10:24:26 44° 99° (E) 10:28:48 435.000/436.395/437.385
ZACube-1 01 Apr 10:21:49 10:25:56 37° 97° (E) 10:30:08 437.345
CUTE 1.7 + AOD 2 01 Apr 10:25:55 10:29:45 30° 290° (WNW) 10:33:30 437.475
VELOX 1 01 Apr 10:30:59 10:33:20 14° 90° (E) 10:35:52 145.980
CUBEBUG 2 01 Apr 10:31:41 10:36:09 72° 102° (ESE) 10:40:44 437.445
ANTELSAT 01 Apr 10:32:25 10:36:41 89° 256° (WSW) 10:41:04 437.575/2403.000
POPSAT HIP 1 01 Apr 10:36:28 10:40:33 51° 73° (ENE) 10:44:40 437.405
AISAT 01 Apr 10:36:39 10:39:31 17° 91° (E) 10:42:31 437.250
AAUSAT CUBESAT 2 01 Apr 10:38:13 10:42:08 36° 289° (WNW) 10:45:59 437.432
BEESAT 3 01 Apr 10:39:50 10:43:36 34° 312° (NW) 10:47:23 437.485
CINEMA 3 01 Apr 10:40:50 10:45:10 51° 287° (WNW) 10:49:40 145.822/145.860
NANOSAT C BR1 01 Apr 10:45:37 10:49:48 65° 74° (ENE) 10:53:59 145.865
HUMSAT D 01 Apr 10:47:52 10:51:47 35° 97° (E) 10:55:45 437.325/437.525
SEEDS 01 Apr 10:50:56 10:54:11 21° 293° (WNW) 10:57:19 437.485
POLYITAN 1 01 Apr 10:52:45 10:56:57 81° 76° (ENE) 11:01:11 437.675
50 SAT 01 Apr 10:57:54 11:01:26 29° 95° (E) 11:05:00 437.505
UKube-1 01 Apr 10:58:33 11:02:51 61° 101° (E) 11:07:08 .
PHONESAT 2.4 01 Apr 10:58:48 10:59:09 10° 212° (SSW) 10:59:22 2401.200-2431.200
COMPASS 1 01 Apr 11:08:57 11:11:42 17° 295° (WNW) 11:14:18 437.405
DX 1 01 Apr 11:13:01 11:17:23 87° 284° (WNW) 11:21:43 434.975-435.025
ESTCUBE 1 01 Apr 11:16:20 11:19:56 24° 93° (E) 11:23:37 437.505/2401.250
DOVE 4 01 Apr 11:27:24 11:28:38 11° 297° (WNW) 11:29:39 437.250
Oscar 11 01 Apr 11:27:35 11:31:11 25° 292° (WNW) 11:34:41 145.826/435.025
DUCHIFAT 1 01 Apr 11:28:18 11:32:18 42° 262° (W) 11:36:18 145.980
QB50P1 01 Apr 11:28:21 11:32:21 41° 262° (W) 11:36:21 145.935-145.965
UNISAT 6 01 Apr 11:29:31 11:32:56 22° 267° (W) 11:36:19 437.425
DELFI C3 01 Apr 11:33:51 11:37:13 24° 292° (WNW) 11:40:29 145.870
AIST 2 01 Apr 11:37:02 11:40:54 31° 313° (NW) 11:44:46 435.215
TIGRISAT 01 Apr 11:38:40 11:41:46 19° 269° (W) 11:44:45 435.000
HO-68 01 Apr 11:40:14 11:45:20 21° 305° (NW) 11:50:10 435.675
FUNcube-1 01 Apr 11:44:08 11:48:03 31° 290° (WNW) 11:51:57 145.935
QB50P2 01 Apr 11:44:50 11:48:28 27° 265° (W) 11:52:04 145.880/145.840
BEESAT 2 01 Apr 11:46:53 11:48:58 13° 325° (NW) 11:50:56 435.950
SPROUT 01 Apr 11:54:31 11:56:41 14° 89° (E) 11:59:04 437.525
BUGSAT 1 01 Apr 11:54:49 11:58:27 29° 264° (W) 12:02:02 437.445
CUBEBUG 1 01 Apr 11:56:31 12:00:47 55° 100° (E) 12:05:01 437.445
UWE-3 01 Apr 11:57:29 12:00:43 20° 294° (WNW) 12:03:54 435.000/436.395/437.385
ZACube-1 01 Apr 11:58:38 12:02:07 22° 293° (WNW) 12:05:33 437.345
Oscar 19 01 Apr 12:03:50 12:07:10 18° 62° (ENE) 12:10:41 437.125/150
VELOX 1 01 Apr 12:06:00 12:10:19 55° 287° (WNW) 12:14:37 145.980
CUBEBUG 2 01 Apr 12:10:14 12:12:24 13° 297° (WNW) 12:14:22 437.445
AISAT 01 Apr 12:12:11 12:16:25 45° 288° (WNW) 12:20:37 437.250
POPSAT HIP 1 01 Apr 12:14:28 12:16:49 14° 271° (W) 12:19:00 437.405
HUMSAT D 01 Apr 12:24:03 12:27:23 22° 293° (WNW) 12:30:39 437.325/437.525
NANOSAT C BR1 01 Apr 12:24:48 12:26:11 11° 272° (W) 12:27:18 145.865
50 SAT 01 Apr 12:32:57 12:36:15 24° 292° (WNW) 12:39:28 437.505
UKube-1 01 Apr 12:36:13 12:38:34 14° 297° (WNW) 12:40:45 .
YUBILEINY 01 Apr 12:44:54 12:52:41 38° 86° (E) 13:00:41 435.215
Gurwin Techsat 1B 01 Apr 12:46:28 12:48:38 13° 58° (ENE) 12:51:02 435.225
O/OREOS (USA 219) 01 Apr 12:50:17 12:54:35 39° 60° (ENE) 12:58:50 437.305
ESTCUBE 1 01 Apr 12:52:48 12:56:55 35° 290° (WNW) 13:00:58 437.505/2401.250
ITUPSAT 1 01 Apr 13:03:48 13:04:19 10° 86° (E) 13:05:10 437.325
TISAT 1 01 Apr 13:06:27 13:10:39 72° 102° (ESE) 13:14:51 437.305
ITAMSAT 1 01 Apr 13:15:26 13:19:44 27° 66° (ENE) 13:24:09 435.822/435.867
PCSat 01 Apr 13:27:34 13:32:05 28° 110° (ESE) 13:36:43 145.827
SPROUT 01 Apr 13:28:59 13:33:11 53° 287° (WNW) 13:37:22 437.525
CUBEBUG 1 01 Apr 13:34:11 13:36:46 15° 296° (WNW) 13:39:10 437.445
Oscar 19 01 Apr 13:41:02 13:46:05 62° 259° (WSW) 13:51:12 437.125/150
SWISSCUBE 01 Apr 13:47:05 13:51:22 33° 96° (E) 13:55:41 437.505
BEESAT 01 Apr 13:49:28 13:53:44 32° 96° (E) 13:58:01 436.000
AIST 1 01 Apr 14:01:47 14:04:46 19° 69° (ENE) 14:07:51
JAS-2 01 Apr 14:13:54 14:18:15 18° 54° (NE) 14:23:05 435.910
HORYU 2 01 Apr 14:18:48 14:21:46 18° 64° (ENE) 14:24:51 437.375
Gurwin Techsat 1B 01 Apr 14:22:34 14:27:53 85° 78° (ENE) 14:33:15 435.225
O/OREOS (USA 219) 01 Apr 14:30:17 14:33:46 21° 257° (WSW) 14:37:07 437.305
ITUPSAT 1 01 Apr 14:38:10 14:43:00 86° 283° (WNW) 14:47:46 437.325
YUBILEINY 01 Apr 14:40:52 14:49:22 50° 287° (WNW) 14:57:53 435.215
KKS-1 01 Apr 14:41:26 14:44:44 20° 92° (E) 14:48:07 437.445
AO-7 01 Apr 14:42:17 14:49:41 39° 60° (ENE) 14:57:12 29.400- 29.500
TISAT 1 01 Apr 14:44:23 14:45:57 12° 298° (WNW) 14:47:19 437.305
ITAMSAT 1 01 Apr 14:54:10 14:59:06 40° 262° (W) 15:04:00 435.822/435.867
STARS 01 Apr 15:05:21 15:08:51 23° 94° (E) 15:12:26 437.465
PCSat 01 Apr 15:10:09 15:15:20 45° 308° (NW) 15:20:32 145.827
SWISSCUBE 01 Apr 15:25:04 15:29:11 28° 293° (WNW) 15:33:12 437.505
BEESAT 01 Apr 15:27:23 15:31:32 29° 293° (WNW) 15:35:36 436.000
AIST 1 01 Apr 15:38:38 15:42:39 38° 268° (W) 15:46:36
HORYU 2 01 Apr 15:53:48 15:58:06 48° 261° (W) 16:02:26 437.375
JAS-2 01 Apr 15:54:59 16:02:03 75° 73° (ENE) 16:09:50 435.910
Gurwin Techsat 1B 01 Apr 16:06:24 16:08:41 12° 274° (W) 16:10:39 435.225
KKS-1 01 Apr 16:17:24 16:21:34 39° 289° (WNW) 16:25:41 437.445
ITUPSAT 1 01 Apr 16:18:42 16:20:13 11° 301° (WNW) 16:21:28 437.325
AO-7 01 Apr 16:34:16 16:42:20 52° 259° (W) 16:50:23 29.400- 29.500
MOZHAYETS 4 01 Apr 16:40:31 16:44:14 24° 93° (E) 16:48:00
STARS 01 Apr 16:41:24 16:45:25 34° 290° (WNW) 16:49:22 437.465
BEESAT 2 01 Apr 16:48:00 16:49:59 13° 36° (NE) 16:52:05 435.950
PCSat 01 Apr 16:58:58 17:00:18 11° 331° (NNW) 17:01:26 145.827
SO-50 01 Apr 17:16:54 17:20:04 19° 111° (ESE) 17:23:27 436.795
BEESAT 3 01 Apr 17:20:02 17:23:27 25° 44° (NE) 17:26:52 437.485
AUBIESAT-1 01 Apr 17:39:33 17:43:25 24° 97° (E) 17:47:15 437.475
CUTE-I 01 Apr 17:40:19 17:45:25 48° 70° (ENE) 17:50:35 437.470
Cubesat XI-IV 01 Apr 17:41:31 17:46:40 50° 71° (ENE) 17:51:52 437.490
JAS-2 01 Apr 17:42:26 17:47:59 23° 274° (W) 17:53:37 435.910
RS-15 01 Apr 17:57:14 18:07:03 43° 110° (ESE) 18:17:12 29.354- 29.394
M-CUBED/EXP-1 PRIME 01 Apr 18:06:30 18:11:14 49° 104° (ESE) 18:15:49 437.505
MOZHAYETS 4 01 Apr 18:17:18 18:21:36 37° 290° (WNW) 18:25:49
AIST 2 01 Apr 18:19:15 18:23:02 29° 46° (NE) 18:26:46 435.215
BEESAT 2 01 Apr 18:24:40 18:28:50 83° 53° (NE) 18:32:56 435.950
HO-68 01 Apr 18:36:46 18:40:36 16° 52° (NE) 18:44:46 435.675
CUBESAT XI-V 01 Apr 18:37:09 18:41:13 30° 94° (E) 18:45:18 437.345
SO-50 01 Apr 18:55:38 19:00:13 56° 309° (NW) 19:04:58 436.795
BEESAT 3 01 Apr 18:57:48 19:01:37 37° 243° (WSW) 19:05:22 437.485
GONETS M04 01 Apr 18:58:28 19:06:54 59° 92° (E) 19:15:27
STRAND 1 01 Apr 19:11:18 19:15:57 35° 96° (E) 19:20:37 437.568
AUBIESAT-1 01 Apr 19:13:48 19:18:22 42° 295° (WNW) 19:22:46 437.475
BRITE-PL 01 Apr 19:17:18 19:20:37 21° 68° (ENE) 19:23:55 437.365/2234.400
CUTE-I 01 Apr 19:21:32 19:25:48 23° 268° (W) 19:29:57 437.470
Cubesat XI-IV 01 Apr 19:22:54 19:27:06 22° 268° (W) 19:31:10 437.490
CANX-2 01 Apr 19:31:44 19:34:26 17° 65° (ENE) 19:37:17 2200.000
PRISM 01 Apr 19:32:11 19:36:23 88° 103° (ESE) 19:40:31 437.425
M-CUBED/EXP-1 PRIME 01 Apr 19:42:00 19:45:46 22° 300° (WNW) 19:49:23 437.505
CUTE 1.7 + AOD 2 01 Apr 19:44:36 19:47:45 21° 67° (ENE) 19:51:01 437.475
GOMX 1 01 Apr 19:45:30 19:49:03 26° 69° (ENE) 19:52:35 467.674
AAUSAT CUBESAT 2 01 Apr 19:55:51 19:58:28 17° 65° (ENE) 20:01:14 437.432
AIST 2 01 Apr 19:57:49 20:01:38 32° 244° (WSW) 20:05:20 435.215
SEEDS 01 Apr 20:07:51 20:11:32 30° 70° (ENE) 20:15:18 437.485
RS-15 01 Apr 20:08:22 20:19:08 60° 313° (NW) 20:30:08 29.354- 29.394
CINEMA 3 01 Apr 20:08:43 20:11:09 16° 65° (ENE) 20:13:44 145.822/145.860
CUBESAT XI-V 01 Apr 20:14:38 20:18:38 29° 292° (WNW) 20:22:32 437.345
CUSAT 1 01 Apr 20:16:50 20:19:08 26° 96° (E) 20:21:25 437.405
HO-68 01 Apr 20:20:09 20:27:16 73° 71° (ENE) 20:34:27 435.675
COMPASS 1 01 Apr 20:24:32 20:28:24 37° 71° (ENE) 20:32:20 437.405
ISS 01 Apr 20:29:52 20:30:32 11° 131° (SE) 20:31:20 145.825
DX 1 01 Apr 20:37:39 20:38:05 10° 60° (ENE) 20:38:46 434.975-435.025
SO-50 01 Apr 20:39:45 20:41:55 13° 331° (NNW) 20:43:57 436.795
Oscar 11 01 Apr 20:47:06 20:50:48 29° 69° (ENE) 20:54:34 145.826/435.025
DELFI C3 01 Apr 20:47:44 20:50:50 22° 68° (ENE) 20:54:02 145.870
STRAND 1 01 Apr 20:50:39 20:55:05 30° 293° (WNW) 20:59:25 437.568
DOVE 4 01 Apr 20:53:58 20:58:15 87° 256° (WSW) 21:02:26 437.250
BRITE-PL 01 Apr 20:54:45 20:59:02 37° 262° (W) 21:03:04 437.365/2234.400
GONETS M04 01 Apr 20:56:38 21:04:19 32° 293° (WNW) 21:11:54
FUNcube-1 01 Apr 21:05:27 21:08:39 23° 68° (ENE) 21:11:58 145.935
CANX-2 01 Apr 21:05:58 21:10:03 46° 262° (W) 21:14:11 2200.000
UWE-3 01 Apr 21:18:43 21:22:33 38° 71° (ENE) 21:26:28 435.000/436.395/437.385
ZACube-1 01 Apr 21:19:15 21:22:54 32° 70° (ENE) 21:26:39 437.345
CUTE 1.7 + AOD 2 01 Apr 21:19:33 21:23:29 36° 263° (W) 21:27:27 437.475
GOMX 1 01 Apr 21:23:22 21:27:11 28° 265° (W) 21:30:51 467.674
DANDE 01 Apr 21:28:46 21:31:12 26° 284° (WNW) 21:33:29 436.750
AAUSAT CUBESAT 2 01 Apr 21:29:46 21:33:47 46° 261° (W) 21:37:52 437.432
VELOX 1 01 Apr 21:29:57 21:32:37 16° 64° (ENE) 21:35:27 145.980
CUBEBUG 2 01 Apr 21:31:13 21:35:19 65° 75° (ENE) 21:39:28 437.445
AISAT 01 Apr 21:35:50 21:38:53 19° 65° (ENE) 21:42:04 437.250
HUMSAT D 01 Apr 21:41:07 21:44:36 28° 69° (ENE) 21:48:10 437.325/437.525
SEEDS 01 Apr 21:43:55 21:47:23 24° 267° (W) 21:50:50 437.485
CINEMA 3 01 Apr 21:44:02 21:48:04 47° 261° (W) 21:52:05 145.822/145.860
50 SAT 01 Apr 21:45:32 21:48:23 20° 67° (ENE) 21:51:21 437.505
UKube-1 01 Apr 21:54:16 21:58:31 59° 73° (ENE) 22:02:49 .
COMPASS 1 01 Apr 22:01:12 22:04:17 19° 268° (W) 22:07:17 437.405
ISS 01 Apr 22:03:14 22:06:29 85° 149° (SSE) 22:09:45 145.825
DX 1 01 Apr 22:09:21 22:13:44 89° 249° (WSW) 22:18:07 434.975-435.025
HO-68 01 Apr 22:10:19 22:15:45 22° 270° (W) 22:20:57 435.675
PCSat 01 Apr 22:13:46 22:18:34 31° 47° (NE) 22:23:23 145.827
ESTCUBE 1 01 Apr 22:17:04 22:20:47 26° 68° (ENE) 22:24:36 437.505/2401.250
DELFI C3 01 Apr 22:22:09 22:25:51 32° 264° (W) 22:29:33 145.870
Oscar 11 01 Apr 22:23:16 22:26:59 27° 266° (W) 22:30:38 145.826/435.025
ANTELSAT 01 Apr 22:24:08 22:27:20 19° 91° (E) 22:30:42 437.575/2403.000
RS-15 01 Apr 22:25:33 22:34:32 27° 344° (NNW) 22:43:38 29.354- 29.394
POLYITAN 1 01 Apr 22:39:16 22:40:56 12° 88° (E) 22:42:51 437.675
FUNcube-1 01 Apr 22:41:09 22:44:53 31° 264° (W) 22:48:37 145.935
SPROUT 01 Apr 22:50:26 22:52:28 14° 63° (ENE) 22:54:41 437.525
CUBEBUG 1 01 Apr 22:53:29 22:57:45 52° 73° (ENE) 23:02:03 437.445
YUBILEINY 01 Apr 22:53:57 22:59:52 20° 58° (ENE) 23:06:08 435.215
ZACube-1 01 Apr 22:56:06 22:59:23 22° 267° (W) 23:02:37 437.345
UWE-3 01 Apr 22:56:25 22:59:19 18° 269° (W) 23:02:09 435.000/436.395/437.385
VELOX 1 01 Apr 23:04:28 23:08:49 54° 260° (W) 23:13:12 145.980
AISAT 01 Apr 23:10:57 23:15:13 44° 261° (W) 23:19:29 437.250
CUBEBUG 2 01 Apr 23:11:35 23:12:36 11° 273° (W) 23:13:20 437.445
DUCHIFAT 1 01 Apr 23:12:19 23:15:55 27° 95° (E) 23:19:34 145.980
QB50P1 01 Apr 23:12:39 23:16:19 28° 95° (E) 23:20:01 145.935-145.965
HUMSAT D 01 Apr 23:16:58 23:20:23 25° 266° (W) 23:23:46 437.325/437.525
UNISAT 6 01 Apr 23:19:00 23:23:37 68° 101° (ESE) 23:28:17 437.425
50 SAT 01 Apr 23:19:35 23:23:08 32° 264° (W) 23:26:41 437.505
TIGRISAT 01 Apr 23:27:28 23:32:05 80° 103° (ESE) 23:36:45 435.000
QB50P2 01 Apr 23:28:34 23:32:37 43° 98° (E) 23:36:42 145.880/145.840
UKube-1 01 Apr 23:33:00 23:35:09 13° 271° (W) 23:37:05 .
BUGSAT 1 01 Apr 23:35:44 23:39:26 34° 97° (E) 23:43:09 437.445
ISS 01 Apr 23:40:28 23:43:12 24° 345° (NNW) 23:45:54 145.825
ESTCUBE 1 01 Apr 23:53:25 23:57:34 33° 264° (W) 00:01:41 437.505/2401.250
POPSAT HIP 1 01 Apr 23:56:21 00:00:36 87° 102° (ESE) 00:04:52 437.405
PCSat 01 Apr 23:57:01 00:02:09 44° 247° (WSW) 00:07:14 145.827
TISAT 1 01 Apr 23:59:32 00:03:40 60° 74° (ENE) 00:07:50 437.305
ANTELSAT 01 Apr 23:59:57 00:04:23 47° 288° (WNW) 00:08:52 437.575/2403.000
NANOSAT C BR1 02 Apr 00:05:22 00:09:36 75° 285° (WNW) 00:13:49 145.865
ITUPSAT 1 02 Apr 00:10:32 00:13:14 16° 62° (ENE) 00:16:09 437.325
POLYITAN 1 02 Apr 00:13:08 00:17:20 60° 286° (WNW) 00:21:33 437.675
SPROUT 02 Apr 00:23:52 00:28:07 62° 259° (W) 00:32:24 437.525
CUBEBUG 1 02 Apr 00:31:52 00:34:30 15° 270° (W) 00:36:58 437.445
RS-15 02 Apr 00:42:33 00:51:44 28° 19° (NNE) 01:01:23 29.354- 29.394
DUCHIFAT 1 02 Apr 00:48:07 00:51:43 27° 291° (WNW) 00:55:15 145.980
QB50P1 02 Apr 00:48:34 00:52:08 26° 292° (WNW) 00:55:39 145.935-145.965
YUBILEINY 02 Apr 00:49:22 00:58:15 88° 82° (E) 01:07:02 435.215
SWISSCUBE 02 Apr 00:54:32 00:59:02 42° 70° (ENE) 01:03:36 437.505
BEESAT 02 Apr 00:56:50 01:01:18 41° 70° (ENE) 01:05:51 436.000
UNISAT 6 02 Apr 00:57:21 00:59:57 15° 297° (WNW) 01:02:23 437.425
QB50P2 02 Apr 01:05:18 01:08:16 18° 294° (WNW) 01:11:07 145.880/145.840
TIGRISAT 02 Apr 01:06:17 01:08:17 12° 298° (WNW) 01:10:06 435.000
BUGSAT 1 02 Apr 01:11:45 01:14:44 20° 293° (WNW) 01:17:39 437.445
